Regional Weather Roundup
Issued by NWS

Home | Current Version | Previous Version | Text Only | Print | Product List | Glossary Off
Versions: 1 2 3 4 5 6 7 8 9 10 11 12 13 14 15 16 17 18 19 20 21 22 23 24 25 26 27 28 29 30 31 32 33 34 35 36 37 38 39 40 41 42 43 44 45 46 47 48 49 50

936
ASUS43 KMKX 301000
RWRWI

WISCONSIN REGIONAL WEATHER ROUNDUP
NATIONAL WEATHER SERVICE MILWAUKEE/SULLIVAN WI
500 AM CDT SUN APR 30 2017

NOTE: "FAIR" INDICATES FEW OR NO CLOUDS BELOW 12,000 FEET WITH NO
SIGNIFICANT WEATHER AND/OR OBSTRUCTIONS TO VISIBILITY.

WIZ001-002-006>008-014>016-023>028-301100-
NORTHWEST WISCONSIN

CITY           SKY/WX    TMP DP  RH WIND       PRES   REMARKS
SUPERIOR ARPT  CLOUDY    37  25  61 E9        30.21S WCI  30
ASHLAND        CLOUDY    35  29  78 NE8       30.21F WCI  29
HAYWARD        CLOUDY    37  21  52 NE5       30.16F WCI  33
SIREN          CLOUDY    39  20  47 E5        30.15S
CUMBERLAND     CLOUDY    37  19  48 E8        30.13S WCI  31
RICE LAKE      CLOUDY    41  20  43 NE9       30.15S
CHETEK         NOT AVBL
LADYSMITH      MOCLDY    39  23  51 NE7       30.16S WCI  34
EAU CLAIRE     NOT AVBL
MENOMONIE      CLOUDY    43  24  47 NE12      30.11F
NEW RICHMOND   MOCLDY    41  23  48 NE7       30.11F
OSCEOLA        CLOUDY    42  25  51 NE5       30.15S
$$

WIZ003>005-009-010-017-018-301100-
NORTH CENTRAL WISCONSIN

CITY           SKY/WX    TMP DP  RH WIND       PRES   REMARKS
MANITOWISH WTR NOT AVBL
ARBOR VITAE    CLOUDY    37  21  53 CALM      30.15F
WOODRUFF       CLOUDY    37  21  53 CALM      30.15F
RHINELANDER    CLOUDY    37  23  56 NE7       30.14F WCI  32
EAGLE RIVER    PTCLDY    34  20  57 NE7       30.15F WCI  28
LAND O LAKES   PTCLDY    36  21  56 NE6       30.19F WCI  31
PHILLIPS       CLOUDY    36  21  55 E6        30.14F WCI  31
TOMAHAWK       CLOUDY    36  21  54 NE7       30.14F WCI  30
MEDFORD        CLOUDY    38  23  56 NE10      30.11S WCI  30
MERRILL        MOCLDY    38  24  56 NE6       30.13S WCI  33
$$

WIZ029-030-035-036-043>047-301100-
CENTRAL WISCONSIN

CITY           SKY/WX    TMP DP  RH WIND       PRES   REMARKS
WAUSAU         CLOUDY    38  24  57 NE6       30.11S WCI  33
MOSINEE        CLOUDY    37  25  60 NE10G16   30.11S WCI  30
MARSHFIELD     CLOUDY    39  24  55 E10       30.10R WCI  32
STEVENS POINT  CLOUDY    37  25  61 NE9G16    30.11R WCI  30
WAUPACA        CLOUDY    41  31  66 NE8G18    30.10F
WAUTOMA        CLOUDY    40  34  79 NE16      30.08S WCI  31
WISC RAPIDS    CLOUDY    40  28  62 E10       30.11R WCI  33
CAMP DOUGLAS   NOT AVBL
$$

WIZ011>013-019>022-031-037>040-048>050-301100-
NORTHEAST WISCONSIN

CITY           SKY/WX    TMP DP  RH WIND       PRES   REMARKS
ANTIGO         CLOUDY    36  24  61 E12       30.10F WCI  27
SHAWANO        CLOUDY    41  29  61 NE12G17   30.13F
OCONTO         CLOUDY    40  31  70 NE8       30.14F WCI  34
STURGEON BAY   LGT RAIN  38  34  85 NE12G18   30.14F WCI  30
GREEN BAY      LGT RAIN  41  35  79 NE16G25   30.12S
MANITOWOC      NOT AVBL
APPLETON       LGT RAIN  37  36  93 NE12      30.08S WCI  30
CLINTONVILLE   CLOUDY    37  27  65 NE9G18    30.11F WCI  31
OSHKOSH        CLOUDY    40  36  86 NE15G26   30.07S WCI  32
$$

WIZ032>034-041-042-053>061-301100-
SOUTHWEST WISCONSIN

CITY           SKY/WX    TMP DP  RH WIND       PRES   REMARKS
LA CROSSE      CLOUDY    45  28  51 NE10      30.06R
SPARTA         CLOUDY    42  29  60 NE12      30.08R
VIROQUA        CLOUDY    40  32  71 NE12      30.03R WCI  33
BOSCOBEL       CLOUDY    42  36  79 NE8G16    30.02S
PRAIRIE DU CHI CLOUDY    42  34  73 NE8G20    30.00S
PLATTEVILLE    CLOUDY    40  39  97 NE17G23   29.98R WCI  31
$$

WIZ056-057-062-063-064-067-068-301100-
SOUTH CENTRAL WISCONSIN

CITY           SKY/WX    TMP DP  RH WIND       PRES   REMARKS
REEDSBURG      NOT AVBL
BARABOO/DELLS  CLOUDY    37  36  93 NE13      30.03R WCI  29
LONE ROCK      NOT AVBL
MINERAL POINT  CLOUDY    39  39 100 NE16G24   29.98R WCI  30
MADISON        CLOUDY    39  37  92 NE16G23   30.01R WCI  30
MIDDLETON      CLOUDY    40  38  92 NE13      30.01R WCI  33
WATERTOWN      CLOUDY    40  40 100 NE14      30.00S WCI  32
MONROE         CLOUDY    41  37  87 NE16G22   29.95S
JANESVILLE     CLOUDY    43  41  93 E16G26    29.97R
$$

WIZ051-052-058>065-066-070>072-301100-
SOUTHEAST WISCONSIN

CITY           SKY/WX    TMP DP  RH WIND       PRES   REMARKS
MILWAUKEE      LGT RAIN  41  40  96 NE22      30.01S FOG
WAUKESHA       CLOUDY    37  36  93 NE15G25   30.00S FOG     WCI  28
MILWAUKEE/TIMM DRIZZLE   37  36  93 NE15G21   30.01F WCI  28
RACINE         CLOUDY    41  38  89 NE20G26   30.01S FOG
KENOSHA        CLOUDY    41  39  93 NE20      29.98R FOG
FOND DU LAC    CLOUDY    40  36  86 NE14      30.06S WCI  32
SHEBOYGAN      LGT RAIN  39  37  92 NE20G30   30.07F FOG     WCI  29
WEST BEND      CLOUDY    37  37 100 NE20G25   30.03S FOG     WCI  27
JUNEAU         CLOUDY    38  37  97 NE16G22   30.02S FOG     WCI  29
$$

LSZ147-162-301100-
LAKE SUPERIOR

STATION/POSITION TIME  TEMP    WIND        PRES    WAVE
                       AIR SEA DIR/SP/G            HT/PER
                 (UTC) (F)     (DEG/KT/KT) (MB)    (FT/S)
DEVILS ISLAND    0900   37      50/ 13/ 14 1025.0F
PORT WING        0940   37      60/  9/ 12 1023.0F
SAXON HARBOR     0940   37      70/  3/  7 1023.0F
$$

LMZ867-665-643>646-301100-
LAKE MICHIGAN

STATION/POSITION TIME  TEMP    WIND        PRES    WAVE
                       AIR SEA DIR/SP/G            HT/PER
                 (UTC) (F)     (DEG/KT/KT) (MB)    (FT/S)
CHAMBERS ISLAND  0940   40      30/ 12/ 16 1021.0F
N MID LAKE BUOY  0850   38 37   60/ 14/ 16 1023.7F   2/ 4
NORTHPORT PIER   0940   40      60/ 17/ 21 1021.3F
KEWAUNEE LAKESHO 0930   39      50/ 16/ 24 1019.4F
SHEBOYGAN LAKESH 0900   39      30/ 25/ 28 1018.8F
PORT WASHINGTON  0940   41      40/ 21/ 24 1018.3S
MILWAUKEE LAKESH 0930   40      30/ 20/ 23   N/A
S MID LAKE BUOY  0850   40 40   40/ 17/ 21 1015.7F   5/ 6
KENOSHA   LAKESH 0900   41      40/ 26/ 30 1014.9
$$

TC  - TEMPERATURE IN CELSIUS
VSB - VISIBILITY IN STATUTE MILES
WCI - WIND CHILL INDEX
HX  - HEAT INDEX





USA.gov is the U.S. government's official web portal to all federal, state and local government web resources and services.